Estación Meteorológica Peña el Pijo (Robertgarden) [ 07/07/20 11:34:01 CEST ]

Fecha Hora Presion(HPa) Temp (°C) Humedad % Rocio (°C) Viento ( m/s) Direccion Lluvia 1Hora(mm) Lluvia 24H(mm) LLuvia Total(mm)
2020-May-26 01:09:31 1017.000 - - - - W     39.88
2020-May-26 02:09:13 1016.700 - - - - W     39.88
2020-May-26 03:09:15 1016.300 - - - - W     39.88
2020-May-26 04:09:14 1015.800 - - - - W     39.88
2020-May-26 05:09:15 1015.700 - - - - W     39.88
2020-May-26 06:09:03 1015.600 - - - - W     39.88
2020-May-26 07:09:24 1016.100 - - - - W     39.88
2020-May-26 08:09:32 1016.200 - - - - W     39.88
2020-May-26 09:09:27 1016.400 - - - - W     39.88
2020-May-26 10:09:45 1016.300 - - - - W     39.88
2020-May-26 11:09:06 1016.200 - - - - W     39.88
2020-May-26 12:09:29 1016.200 - - - - W     39.88
2020-May-26 13:09:22 1015.900 - - - - W     39.88
2020-May-26 14:09:24 1015.700 - - - - W     39.88
2020-May-26 15:09:11 1015.100 - - - - W     39.88
2020-May-26 16:09:55 1014.800 - - - - W     39.88
2020-May-26 17:09:16 1014.600 - - - - W     39.88
2020-May-26 18:09:15 1014.300 - - - - W     39.88
2020-May-26 19:08:59 1014.400 - - - - W     39.88
2020-May-26 20:09:02 1014.300 - - - - W     39.88
2020-May-26 21:09:42 1014.800 - - - - W     39.88
2020-May-26 22:09:06 1015.500 - - - - W     39.88
2020-May-26 23:09:21 1016.200 - - - - W     39.88

Temperatura Máxima:    Temperatura Mínima:
Presión Máxima:1017.000 Hpa    Presión Mínima:1014.300 Hpa


Volver